[[{"header":{"parameterUnit":"m.s-1","parameterCategory":1,"la1":30.2991,"la2":30.254,"lo1":-89.0895,"lo2":-89.0444,"dy":0.0017,"dx":0.0017,"nx":28,"ny":28,"refTime":"2023-10-26T03:00:00:Z","depth":0,"parameterNumber":2,"parameterNumberName":"U-component_of_WINDS"},"data":[0,0,0,0,0,0,0,0,0,0,0,0,0,0,0,0,0,0,0,0,0,0,0,0,0,0,0,0,0,0,0,0,0,0,0,0,0,0,0,0,0,0,0,0,0,0,0,0,0,0,0,0,0,0,0,0,0,0,-6.4036,-6.4037,0,-6.411,-6.4111,-6.4112,-6.4055,-6.4053,-6.405,-6.4048,-6.4123,-6.4128,-6.4132,0,0,0,0,0,0,0,0,0,0,0,0,0,-6.3848,-6.3852,-6.4036,-6.4037,-6.4038,-6.411,-6.4111,-6.4112,-6.4055,-6.4052,-6.4049,-6.4047,-6.4122,-6.4127,-6.4132,0,0,0,0,0,0,0,0,0,0,0,0,0,-6.3927,-6.3853,-6.4036,-6.4018,-6.4017,-6.411,-6.4111,-6.4113,-6.4056,-6.4052,-6.4049,-6.4045,-6.412,-6.4126,-6.4133,-6.4247,0,0,-6.4153,-6.4155,0,0,0,0,0,0,0,0,-6.3922,-6.3934,-6.402,-6.402,-6.4019,-6.407,-6.4073,-6.4158,-6.4057,-6.4041,-6.4048,-6.4043,-6.4108,-6.4116,-6.4138,-6.425,-6.4254,-6.4153,-6.4157,-6.416,-6.4162,0,0,0,0,0,0,0,-6.3917,-6.393,-6.4065,-6.4021,-6.4021,-6.4008,-6.4015,-6.4088,-6.4095,-6.4042,-6.4038,-6.4048,-6.4107,-6.4132,-6.4139,-6.4255,-6.4153,-6.4159,-6.4163,-6.4165,-6.4469,-6.4473,0,0,0,0,0,0,-6.3913,-6.3926,-6.4063,-6.4068,-6.396,-6.4014,-6.4022,-6.4057,-6.4094,-6.4096,-6.4051,-6.4045,-6.4122,-6.4132,-6.4141,-6.4279,-6.416,-6.4166,-6.417,-6.4465,-6.447,-6.4474,0,0,0,0,0,0,-6.3909,-6.3926,-6.406,-6.3996,-6.4012,-6.4021,-6.4061,-6.406,-6.4084,-6.41,-6.4101,-6.4074,-6.412,-6.4132,-6.4222,-6.428,-6.4169,-6.4175,-6.446,-6.4466,-6.4472,-6.4553,0,0,0,0,0,0,-6.3904,-6.3925,-6.3966,-6.3997,-6.4016,-6.4138,-6.4065,-6.4065,-6.4096,-6.4089,-6.4122,-6.4124,-6.4118,-6.4213,-6.4228,-6.4287,-6.418,-6.4455,-6.4463,-6.447,-6.4545,-6.4561,-6.4575,0,0,0,0,0,-6.3897,-6.3985,-6.3969,-6.3986,-6.4068,-6.4141,-6.4152,-6.4143,-6.4101,-6.4144,-6.4155,-6.4123,-6.4273,-6.4222,-6.424,-6.4301,-6.4451,-6.446,-6.447,-6.4538,-6.4558,-6.4575,0,0,0,0,0,0,-6.3959,-6.3989,-6.3971,-6.4071,-6.4105,-6.4132,-6.4185,-6.4164,-6.4209,-6.42,-6.4187,-6.4196,-6.429,-6.4305,-6.4249,-6.4416,-6.4355,-6.4368,-6.4401,-6.442,-6.4435,-6.4428,-6.4185,0,0,0,0,0,-6.3985,-6.4042,-6.4065,-6.4151,-6.4169,-6.4175,-6.4206,-6.4197,-6.4231,-6.4244,-6.4262,-6.4296,-6.4351,-6.4387,-6.4438,-6.4549,-6.4556,-6.46,-6.4615,-6.4628,-6.4638,-6.4701,-6.4721,-6.4505,-6.4505,-6.4505,0,0,-6.4037,-6.4061,-6.4097,-6.4164,-6.4189,-6.4249,-6.4187,-6.4252,-6.4296,-6.4254,-6.4339,-6.4355,-6.4393,-6.4494,-6.454,-6.4509,-6.4701,-6.464,-6.4649,-6.4653,-6.4712,-6.4733,-6.4751,-6.4512,-6.4511,-6.451,0,0,-6.4163,-6.4187,-6.4262,-6.429,-6.4329,-6.4334,-6.4353,-6.4385,-6.4393,-6.448,-6.445,-6.4505,-6.4599,-6.4628,-6.4655,-6.4801,-6.4774,-6.4818,-6.4895,-6.4956,-6.4973,-6.4988,-6.504,-6.5059,-6.483,-6.483,-6.483,0,-6.4223,-6.4312,-6.4304,-6.4373,-6.4404,-6.4372,-6.4449,-6.4477,-6.4531,-6.4554,-6.452,-6.4641,-6.4664,-6.4773,-6.4809,-6.4832,-6.4854,-6.4812,-6.4971,-6.4986,-6.5,-6.5049,-6.5069,-6.4835,-6.4834,-6.4834,-6.4833,0,-6.4384,-6.4447,-6.4504,-6.4558,-6.4597,-6.467,-6.4674,-6.4715,-6.4705,-6.4714,-6.4805,-6.4833,-6.489,-6.4917,-6.4906,-6.5026,-6.5006,-6.4973,-6.4911,-6.5026,-6.5072,-6.5091,-6.4842,-6.484,-6.4839,-6.4837,0,0,-6.4544,-6.4599,-6.4619,-6.4646,-6.469,-6.4739,-6.4813,-6.4871,-6.4906,-6.4947,-6.5008,-6.5093,-6.5064,-6.5095,-6.5089,-6.5143,-6.5258,-6.5103,-6.5103,-6.513,-6.5393,-6.5416,-6.5438,-6.5242,-6.5246,-6.5249,-6.5389,0,-6.4672,-6.4799,-6.4797,-6.4916,-6.4975,-6.4949,-6.5014,-6.5049,-6.5061,-6.5114,-6.5128,-6.5188,-6.5145,-6.5164,-6.5217,-6.5232,-6.531,-6.5223,-6.53,-6.5302,-6.5288,-6.5462,-6.5485,-6.5616,-6.5408,-6.5411,-6.5413,0,-6.4835,-6.4884,-6.5008,-6.5049,-6.5073,-6.5131,-6.5186,-6.5238,-6.5279,-6.5285,-6.5323,-6.531,-6.5388,-6.5328,-6.5435,-6.5376,-6.5408,-6.5422,-6.5427,-6.5431,-6.5362,-6.5469,-6.5658,-6.5677,-6.5441,-6.5439,-6.5437,0,-6.4939,-6.5036,-6.5123,-6.5147,-6.5196,-6.5238,-6.526,-6.5298,-6.5335,-6.5385,-6.5409,-6.5467,-6.5498,-6.5544,-6.5548,-6.5504,-6.5657,-6.5597,-6.5664,-6.5664,-6.5693,-6.5691,-6.5888,-6.5719,-6.5719,-6.5718,-6.5718,0,-6.508,-6.5157,-6.5171,-6.5225,-6.5312,-6.5312,-6.5399,-6.5418,-6.5453,-6.5511,-6.5494,-6.5549,-6.5553,-6.5611,-6.5615,-6.5704,-6.5719,-6.5726,-6.5726,-6.5726,-6.5725,-6.5744,-6.5735,-6.5724,-6.5723,-6.5721,-6.5721,0,-6.5207,-6.522,-6.5314,-6.5355,-6.5368,-6.543,-6.5466,-6.5518,-6.5532,-6.5606,-6.5624,-6.5645,-6.5713,-6.5723,-6.5802,-6.5805,-6.5912,-6.5904,-6.5898,-6.5896,-6.5962,-6.5955,-6.6176,-6.6206,-6.602,-6.6021,-6.6023,0,-6.5294,-6.5354,-6.5403,-6.5441,-6.5466,-6.5528,-6.5567,-6.5571,-6.5612,-6.5668,-6.5714,-6.5781,-6.5833,-6.5944,-6.5966,-6.6028,-6.602,-6.6094,-6.6028,-6.6028,-6.602,-6.6015,-6.6022,-6.6104,-6.6106,-6.6108,-6.6109,0,-6.5448,-6.5453,-6.5509,-6.5569,-6.5616,-6.5663,-6.5708,-6.5741,-6.5752,-6.5799,-6.5869,-6.5911,-6.5994,-6.606,-6.6123,-6.6148,-6.6131,-6.6131,-6.615,-6.6148,-6.6142,-6.6146,-6.593,-6.6124,-6.6123,-6.6122,-6.6121,-6.612,-6.5557,-6.561,-6.5654,-6.5718,-6.5753,-6.5797,-6.5849,-6.5871,-6.593,-6.5997,-6.5998,-6.6075,-6.6121,-6.6203,-6.6233,-6.6295,-6.6271,-6.6298,-6.6304,-6.631,-6.6317,-6.6136,-6.6306,-6.6306,-6.6306,-6.6305,-6.6305,0,-6.5708,-6.5737,-6.5797,-6.5861,-6.5913,-6.5897,-6.5947,-6.5991,-6.6059,-6.6103,-6.6158,-6.624,-6.6307,-6.6338,-6.6404,-6.6447,-6.6442,-6.6464,-6.646,-6.6466,-6.6334,-6.6311,-6.6468,-6.6468,-6.6468,-6.6468,-6.6468,-6.6468,-6.5793,-6.5882,-6.5894,-6.6001,-6.603,-6.6106,-6.6136,-6.6178,-6.6213,-6.6306,-6.6362,-6.6383,-6.6423,-6.6493,-6.6554,-6.6562,-6.6586,-6.6612,-6.6617,-6.6492,-6.6475,-6.6459,-6.6437,-6.6618,-6.6618,-6.6743,-6.6744,-6.6745]},{"header":{"parameterUnit":"m.s-1","parameterCategory":1,"la1":30.2991,"la2":30.254,"lo1":-89.0895,"lo2":-89.0444,"dy":0.0017,"dx":0.0017,"nx":28,"ny":28,"refTime":"2023-10-26T03:00:00:Z","depth":0,"parameterNumber":3,"parameterNumberName":"V-component_of_WINDS"},"data":[0,0,0,0,0,0,0,0,0,0,0,0,0,0,0,0,0,0,0,0,0,0,0,0,0,0,0,0,0,0,0,0,0,0,0,0,0,0,0,0,0,0,0,0,0,0,0,0,0,0,0,0,0,0,0,0,0,0,2.2091,2.2091,0,2.2122,2.2123,2.2123,2.2196,2.2197,2.2199,2.22,2.2225,2.2224,2.2223,0,0,0,0,0,0,0,0,0,0,0,0,0,2.2089,2.2089,2.2091,2.2091,2.2092,2.2122,2.2123,2.2123,2.2196,2.2197,2.2199,2.2201,2.2225,2.2224,2.2223,0,0,0,0,0,0,0,0,0,0,0,0,0,2.2102,2.2089,2.2091,2.2132,2.2136,2.2122,2.2123,2.2123,2.2195,2.2197,2.22,2.2202,2.2225,2.2224,2.2223,2.217,0,0,2.2219,2.2219,0,0,0,0,0,0,0,0,2.2101,2.2102,2.2125,2.2129,2.2133,2.2158,2.2131,2.2139,2.2195,2.2172,2.22,2.2203,2.22,2.2201,2.2202,2.2171,2.2172,2.2219,2.2218,2.2218,2.2218,0,0,0,0,0,0,0,2.21,2.2101,2.2103,2.2126,2.2131,2.2147,2.2151,2.2133,2.2173,2.2174,2.218,2.2183,2.2202,2.2202,2.2203,2.2172,2.2219,2.2218,2.2217,2.2217,2.2103,2.2101,0,0,0,0,0,0,2.2094,2.21,2.2102,2.2104,2.2123,2.2145,2.215,2.2147,2.2173,2.2179,2.2181,2.2186,2.2203,2.2204,2.2204,2.2146,2.2218,2.2217,2.2216,2.2105,2.2102,2.21,0,0,0,0,0,0,2.2094,2.2094,2.2101,2.2104,2.2106,2.2143,2.2139,2.2147,2.2147,2.2178,2.2185,2.2174,2.2205,2.2205,2.2179,2.2147,2.2216,2.2215,2.2108,2.2104,2.2101,2.2027,0,0,0,0,0,0,2.2094,2.2093,2.2074,2.2103,2.2105,2.2077,2.2137,2.2146,2.2146,2.2153,2.2173,2.2179,2.2207,2.218,2.2178,2.2147,2.2214,2.2111,2.2106,2.2102,2.2032,2.2021,2.2012,0,0,0,0,0,2.2093,2.205,2.2073,2.2073,2.2083,2.2075,2.2076,2.2112,2.2143,2.2124,2.2144,2.2178,2.2151,2.2177,2.2175,2.2143,2.2113,2.2108,2.2103,2.2037,2.2023,2.2012,0,0,0,0,0,0,2.2013,2.2054,2.208,2.2045,2.2056,2.2087,2.2064,2.2096,2.2096,2.2102,2.2144,2.2148,2.2116,2.2127,2.2155,2.2095,2.2138,2.2132,2.2089,2.2076,2.2066,2.2064,2.2213,0,0,0,0,0,2.1991,2.1983,2.2019,2.1984,2.1989,2.2025,2.2023,2.205,2.2062,2.2067,2.2085,2.2094,2.2088,2.2083,2.2079,2.2035,2.2041,2.2012,2.2002,2.1993,2.1987,2.1967,2.1955,2.2083,2.2083,2.2083,0,0,2.1946,2.1968,2.1959,2.1969,2.1981,2.1971,2.2029,2.2014,2.2007,2.2064,2.2041,2.2055,2.2068,2.2033,2.2019,2.2041,2.1954,2.1987,2.1979,2.1978,2.1961,2.1948,2.1938,2.2079,2.208,2.208,0,0,2.1858,2.1874,2.1848,2.186,2.1879,2.1904,2.1898,2.1925,2.1938,2.1917,2.196,2.1951,2.1939,2.1948,2.195,2.187,2.1902,2.1868,2.1814,2.1794,2.1784,2.1775,2.1748,2.1737,2.1862,2.1862,2.1861,0,2.1799,2.1787,2.183,2.1815,2.1818,2.1873,2.1847,2.1856,2.1871,2.1871,2.1897,2.1886,2.1898,2.1868,2.1849,2.1849,2.1843,2.1865,2.1782,2.1774,2.1766,2.1741,2.173,2.1857,2.1858,2.1858,2.1859,0,2.1714,2.1705,2.1682,2.17,2.17,2.1679,2.1718,2.1714,2.1742,2.1764,2.1742,2.176,2.1762,2.1757,2.1781,2.173,2.1744,2.1775,2.1819,2.1749,2.1726,2.1716,2.1851,2.1853,2.1854,2.1855,0,0,2.1573,2.1619,2.1609,2.162,2.1646,2.164,2.1622,2.1627,2.1623,2.1632,2.1619,2.161,2.164,2.1643,2.167,2.1652,2.1591,2.1686,2.1687,2.1669,2.1537,2.1513,2.1501,2.1612,2.1611,2.1609,2.1536,0,2.1492,2.1467,2.1507,2.1471,2.1465,2.1519,2.1504,2.1518,2.1539,2.1535,2.1557,2.1551,2.1591,2.1594,2.1579,2.1601,2.1564,2.1607,2.1599,2.1598,2.1594,2.1489,2.1463,2.1393,2.1527,2.1525,2.1524,0,2.1394,2.1403,2.1368,2.1401,2.1399,2.1385,2.1395,2.1391,2.1409,2.1425,2.1431,2.1465,2.1449,2.1493,2.1472,2.15,2.15,2.151,2.1508,2.1509,2.1557,2.1486,2.1371,2.136,2.151,2.1511,2.1512,0,2.1297,2.13,2.1281,2.1287,2.1324,2.1313,2.1328,2.1348,2.135,2.1358,2.1359,2.1364,2.1366,2.1368,2.1403,2.1431,2.1378,2.1424,2.1391,2.139,2.1376,2.1377,2.1259,2.1375,2.1376,2.1376,2.1376,0,2.1202,2.1179,2.1238,2.1226,2.1202,2.1248,2.1222,2.1242,2.126,2.1252,2.1298,2.1289,2.1335,2.1331,2.1358,2.1337,2.1337,2.135,2.1357,2.1346,2.1345,2.1346,2.1352,2.1373,2.1374,2.1374,2.1375,0,2.1089,2.1127,2.111,2.1148,2.1158,2.1138,2.117,2.116,2.1186,2.1176,2.1176,2.1215,2.1213,2.1248,2.1252,2.127,2.1238,2.1253,2.1232,2.1237,2.1203,2.1206,2.1082,2.1069,2.1192,2.1191,2.119,0,2.1026,2.101,2.1048,2.1048,2.1061,2.1059,2.1063,2.1108,2.1109,2.1131,2.1118,2.1121,2.1125,2.112,2.1147,2.1151,2.1167,2.1124,2.1168,2.1158,2.1168,2.1169,2.1168,2.1114,2.1113,2.1111,2.111,0,2.0911,2.0932,2.0936,2.0948,2.0952,2.0963,2.0976,2.0972,2.1022,2.1021,2.1022,2.1025,2.1032,2.1034,2.1044,2.1058,2.1092,2.1097,2.109,2.1078,2.1067,2.1074,2.1208,2.1099,2.11,2.1101,2.1102,2.1102,2.0822,2.0811,2.0838,2.0842,2.0858,2.087,2.0864,2.0891,2.0893,2.0904,2.093,2.0927,2.0947,2.0965,2.0975,2.0973,2.0994,2.0983,2.098,2.0977,2.0971,2.1068,2.0974,2.0975,2.0975,2.0975,2.0976,0,2.071,2.0731,2.0734,2.0754,2.0757,2.0794,2.0811,2.0811,2.0808,2.0826,2.0831,2.0833,2.0836,2.0866,2.0872,2.0865,2.0881,2.0865,2.0866,2.0869,2.0951,2.0957,2.0852,2.0852,2.0852,2.0852,2.0852,2.0852,2.0653,2.0638,2.0662,2.0656,2.0677,2.0677,2.0684,2.0696,2.071,2.0711,2.0716,2.0736,2.0759,2.0768,2.0773,2.0782,2.0782,2.0761,2.0774,2.0851,2.0862,2.0874,2.088,2.076,2.076,2.0693,2.0692,2.0692]}]]